This is the latest recevied weather packets stored in our database for station/object WW5JC. If no packets are shown the sender has not sent any weather packets the latest 10 day(s).
| Time | Temp. | Humidity | Pressure | Rain* | Wind** | Luminosity | Snow |
|---|---|---|---|---|---|---|---|
| 1787850969 | 32.78° C | 55% | 1018.3 hPa | 0 mm | - | 636 W/m² | - |
| 1787850660 | 32.78° C | 57% | 1018.3 hPa | 0 mm | - | 630 W/m² | - |
| 1787850355 | 32.22° C | 59% | 1018.4 hPa | 0 mm | - | 622 W/m² | - |
| 1787850051 | 32.78° C | 56% | 1018.4 hPa | 0 mm | - | 614 W/m² | - |
| 1787849750 | 32.22° C | 60% | 1018.6 hPa | 0 mm | - | 607 W/m² | - |
| 1787849445 | 32.22° C | 60% | 1018.5 hPa | 0 mm | - | 602 W/m² | - |
| 1787849143 | 31.11° C | 62% | 1018.7 hPa | 0 mm | - | 594 W/m² | - |
| 1787848839 | 31.11° C | 63% | 1018.8 hPa | 0 mm | - | 586 W/m² | - |
| 1787848538 | 31.11° C | 64% | 1018.7 hPa | 0 mm | - | 576 W/m² | - |
| 1787848233 | 31.67° C | 63% | 1018.6 hPa | 0 mm | - | 570 W/m² | - |
| 1787847932 | 31.11° C | 63% | 1018.7 hPa | 0 mm | - | 562 W/m² | - |
| 1787847627 | 30.56° C | 66% | 1018.7 hPa | 0 mm | - | 550 W/m² | - |
| 1787847322 | 31.11° C | 66% | 1018.8 hPa | 0 mm | - | 538 W/m² | - |
| 1787847018 | 30.56° C | 67% | 1018.7 hPa | 0 mm | - | 527 W/m² | - |
| 1787846718 | 30.56° C | 68% | 1018.8 hPa | 0 mm | - | 520 W/m² | - |
| 1787846414 | 30° C | 68% | 1018.6 hPa | 0 mm | - | 508 W/m² | - |
| 1787846109 | 30° C | 71% | 1018.7 hPa | 0 mm | - | 494 W/m² | - |
| 1787845804 | 30° C | 71% | 1018.6 hPa | 0 mm | - | 487 W/m² | - |
| 1787845500 | 29.44° C | 71% | 1018.7 hPa | 0 mm | - | 473 W/m² | - |
| 1787845195 | 30° C | 72% | 1018.5 hPa | 0 mm | - | 460 W/m² | - |
| 1787844891 | 29.44° C | 73% | 1018.6 hPa | 0 mm | - | 448 W/m² | - |
| 1787844590 | 28.89° C | 73% | 1018.7 hPa | 0 mm | - | 436 W/m² | - |
| 1787844285 | 28.89° C | 75% | 1018.5 hPa | 0 mm | - | 423 W/m² | - |
| 1787843978 | 28.89° C | 74% | 1018.2 hPa | 0 mm | - | 411 W/m² | - |
| 1787843674 | 28.89° C | 75% | 1018.2 hPa | 0 mm | - | 395 W/m² | - |
* Rain latest hour (hover to see other rain measurements)
** Current wind speed in m/s (hover to see current wind gust speed)